• In Österreich
  • Länderverzeichnis
  • Für 7 Tage
  • Wassertemperatur
  • Satellitenkarten
  • Wetterkarte
  • News
  • Widgets
  • user-avatar
    Anmelden

    Stündliche Wetter Escaldes-Engordany

    Heute, 23 Juni, Samstag

    Zeit Temperatur Niederschläge Wind Luftdruck Luftfeuchtigkeit
    00:00 +13°C° 0 mm 1 m/S 642 mmHg 91%
    01:00 +13°C° 0 mm 1 m/S 642 mmHg 91%
    02:00 +12°C° 0 mm 1 m/S 642 mmHg 91%
    03:00 +12°C° 0 mm 1 m/S 642 mmHg 92%
    04:00 +13°C° 0 mm 1 m/S 642 mmHg 89%
    05:00 +13°C° 0 mm 1 m/S 643 mmHg 85%
    06:00 +14°C° 0 mm 1 m/S 643 mmHg 82%
    07:00 +16°C° 0 mm 1 m/S 644 mmHg 73%
    08:00 +19°C° 0 mm 1 m/S 644 mmHg 64%
    09:00 +20°C° 0 mm 1 m/S 645 mmHg 55%
    10:00 +21°C° 0,1 mm 1 m/S 645 mmHg 52%
    11:00 +22°C° 0,1 mm 1 m/S 645 mmHg 49%
    12:00 +23°C° 0,1 mm 2 m/S 646 mmHg 45%
    13:00 +23°C° 0,4 mm 2 m/S 645 mmHg 46%
    14:00 +23°C° 0,4 mm 1 m/S 645 mmHg 47%
    15:00 +22°C° 0,4 mm 1 m/S 645 mmHg 47%
    16:00 +21°C° 0,3 mm 1 m/S 644 mmHg 52%
    17:00 +20°C° 0,3 mm 1 m/S 644 mmHg 58%
    18:00 +19°C° 0,3 mm 1 m/S 643 mmHg 63%
    19:00 +16°C° 0,1 mm 1 m/S 643 mmHg 69%
    20:00 +15°C° 0,1 mm 1 m/S 643 mmHg 75%
    21:00 +13°C° 0,1 mm 1 m/S 642 mmHg 81%
    22:00 +13°C° 0 mm 1 m/S 642 mmHg 82%
    23:00 +12°C° 0 mm 1 m/S 642 mmHg 83%

    Morgen, 24 Juni, Sonntag

    Zeit Temperatur Niederschläge Wind Luftdruck Luftfeuchtigkeit
    00:00 +12°C° 0 mm 1 m/S 642 mmHg 83%
    01:00 +12°C° 0 mm 1 m/S 642 mmHg 83%
    02:00 +12°C° 0 mm 1 m/S 642 mmHg 83%
    03:00 +12°C° 0 mm 1 m/S 641 mmHg 84%
    04:00 +13°C° 0 mm 1 m/S 642 mmHg 82%
    05:00 +14°C° 0 mm 1 m/S 642 mmHg 80%
    06:00 +14°C° 0 mm 1 m/S 642 mmHg 79%
    07:00 +16°C° 0 mm 1 m/S 643 mmHg 68%
    08:00 +19°C° 0 mm 1 m/S 644 mmHg 58%
    09:00 +21°C° 0 mm 1 m/S 644 mmHg 47%
    10:00 +22°C° 0 mm 1 m/S 644 mmHg 44%
    11:00 +23°C° 0 mm 2 m/S 645 mmHg 40%
    12:00 +24°C° 0 mm 2 m/S 645 mmHg 37%
    13:00 +24°C° 0 mm 2 m/S 644 mmHg 37%
    14:00 +24°C° 0 mm 2 m/S 644 mmHg 37%
    15:00 +24°C° 0 mm 2 m/S 644 mmHg 37%
    16:00 +23°C° 0 mm 2 m/S 643 mmHg 43%
    17:00 +21°C° 0 mm 2 m/S 643 mmHg 49%
    18:00 +20°C° 0 mm 2 m/S 642 mmHg 54%
    19:00 +18°C° 0 mm 2 m/S 642 mmHg 60%
    20:00 +16°C° 0 mm 2 m/S 641 mmHg 66%
    21:00 +14°C° 0 mm 2 m/S 641 mmHg 72%
    22:00 +13°C° 0 mm 2 m/S 641 mmHg 67%
    23:00 +13°C° 0 mm 2 m/S 641 mmHg 63%

    übermorgen, 25 Juni, Montag

    Zeit Temperatur Niederschläge Wind Luftdruck Luftfeuchtigkeit
    00:00 +12°C° 0 mm 2 m/S 641 mmHg 59%
    01:00 +12°C° 0 mm 2 m/S 641 mmHg 55%
    02:00 +12°C° 0 mm 2 m/S 640 mmHg 51%
    03:00 +12°C° 0 mm 2 m/S 640 mmHg 48%
    04:00 +13°C° 0 mm 2 m/S 641 mmHg 49%
    05:00 +13°C° 0 mm 1 m/S 641 mmHg 50%
    06:00 +14°C° 0 mm 1 m/S 641 mmHg 51%
    07:00 +16°C° 0 mm 1 m/S 642 mmHg 47%
    08:00 +20°C° 0 mm 1 m/S 643 mmHg 43%
    09:00 +22°C° 0 mm 1 m/S 644 mmHg 38%
    10:00 +23°C° 0 mm 1 m/S 644 mmHg 38%
    11:00 +24°C° 0 mm 2 m/S 645 mmHg 37%
    12:00 +25°C° 0 mm 2 m/S 645 mmHg 37%
    13:00 +25°C° 0 mm 2 m/S 645 mmHg 38%
    14:00 +25°C° 0 mm 2 m/S 645 mmHg 40%
    15:00 +25°C° 0 mm 2 m/S 644 mmHg 41%
    16:00 +24°C° 0 mm 2 m/S 644 mmHg 47%
    17:00 +23°C° 0 mm 1 m/S 644 mmHg 53%
    18:00 +21°C° 0 mm 1 m/S 643 mmHg 59%
    19:00 +19°C° 0 mm 1 m/S 643 mmHg 67%
    20:00 +16°C° 0 mm 1 m/S 642 mmHg 75%
    21:00 +14°C° 0 mm 1 m/S 642 mmHg 82%
    22:00 +14°C° 0,1 mm 1 m/S 642 mmHg 83%
    23:00 +14°C° 0,1 mm 1 m/S 642 mmHg 83%

    26 Juni, Dienstag

    Zeit Temperatur Niederschläge Wind Luftdruck Luftfeuchtigkeit
    00:00 +13°C° 0,1 mm 1 m/S 642 mmHg 83%
    01:00 +13°C° 0 mm 1 m/S 641 mmHg 84%
    02:00 +13°C° 0 mm 1 m/S 641 mmHg 84%
    03:00 +13°C° 0 mm 1 m/S 641 mmHg 84%
    04:00 +14°C° 0 mm 1 m/S 641 mmHg 82%
    05:00 +15°C° 0 mm 1 m/S 642 mmHg 79%
    06:00 +16°C° 0 mm 1 m/S 642 mmHg 77%
    07:00 +19°C° 0 mm 1 m/S 643 mmHg 66%
    08:00 +21°C° 0 mm 1 m/S 644 mmHg 56%
    09:00 +23°C° 0 mm 1 m/S 644 mmHg 45%
    10:00 +24°C° 0 mm 1 m/S 645 mmHg 44%
    11:00 +25°C° 0 mm 2 m/S 645 mmHg 43%
    12:00 +25°C° 0 mm 2 m/S 645 mmHg 41%
    13:00 +25°C° 0,1 mm 2 m/S 644 mmHg 44%
    14:00 +24°C° 0,1 mm 2 m/S 644 mmHg 47%
    15:00 +24°C° 0,1 mm 2 m/S 644 mmHg 50%
    16:00 +23°C° 0,1 mm 2 m/S 644 mmHg 54%
    17:00 +22°C° 0,1 mm 1 m/S 643 mmHg 59%
    18:00 +21°C° 0,1 mm 1 m/S 643 mmHg 63%
    19:00 +20°C° 0,1 mm 1 m/S 643 mmHg 69%
    20:00 +18°C° 0,1 mm 1 m/S 643 mmHg 76%
    21:00 +15°C° 0,1 mm 1 m/S 642 mmHg 82%
    22:00 +15°C° 0 mm 1 m/S 642 mmHg 84%
    23:00 +14°C° 0 mm 1 m/S 642 mmHg 85%

    27 Juni, Mittwoch

    Zeit Temperatur Niederschläge Wind Luftdruck Luftfeuchtigkeit
    00:00 +14°C° 0 mm 1 m/S 642 mmHg 86%
    01:00 +13°C° 0 mm 1 m/S 641 mmHg 86%
    02:00 +13°C° 0 mm 1 m/S 641 mmHg 86%
    03:00 +13°C° 0 mm 1 m/S 641 mmHg 87%
    04:00 +14°C° 0 mm 1 m/S 642 mmHg 85%
    05:00 +15°C° 0 mm 1 m/S 642 mmHg 83%
    06:00 +15°C° 0 mm 1 m/S 642 mmHg 81%
    07:00 +18°C° 0 mm 1 m/S 643 mmHg 73%
    08:00 +19°C° 0 mm 2 m/S 644 mmHg 65%
    09:00 +21°C° 0 mm 2 m/S 644 mmHg 57%
    10:00 +21°C° 0,1 mm 2 m/S 644 mmHg 56%
    11:00 +21°C° 0,1 mm 2 m/S 644 mmHg 55%
    12:00 +23°C° 0,1 mm 2 m/S 644 mmHg 54%
    13:00 +23°C° 0,4 mm 2 m/S 644 mmHg 56%
    14:00 +23°C° 0,4 mm 2 m/S 643 mmHg 57%
    15:00 +21°C° 0,4 mm 2 m/S 643 mmHg 59%
    16:00 +21°C° 0,3 mm 2 m/S 643 mmHg 61%
    17:00 +20°C° 0,3 mm 2 m/S 643 mmHg 63%
    18:00 +21°C° 0,3 mm 1 m/S 643 mmHg 66%
    19:00 +19°C° 0,1 mm 1 m/S 642 mmHg 71%
    20:00 +16°C° 0,1 mm 1 m/S 642 mmHg 76%
    21:00 +15°C° 0,1 mm 1 m/S 642 mmHg 81%
    22:00 +14°C° 0,1 mm 1 m/S 642 mmHg 82%
    23:00 +14°C° 0,1 mm 1 m/S 641 mmHg 82%

    28 Juni, Donnerstag

    Zeit Temperatur Niederschläge Wind Luftdruck Luftfeuchtigkeit
    00:00 +13°C° 0,1 mm 1 m/S 641 mmHg 83%
    01:00 +13°C° 0,1 mm 1 m/S 641 mmHg 83%
    02:00 +13°C° 0,1 mm 1 m/S 641 mmHg 83%
    03:00 +13°C° 0,1 mm 1 m/S 640 mmHg 83%
    04:00 +14°C° 0 mm 1 m/S 641 mmHg 81%
    05:00 +15°C° 0 mm 1 m/S 641 mmHg 79%
    06:00 +16°C° 0 mm 1 m/S 641 mmHg 77%
    07:00 +18°C° 0 mm 1 m/S 641 mmHg 69%
    08:00 +19°C° 0 mm 2 m/S 642 mmHg 61%
    09:00 +21°C° 0 mm 2 m/S 642 mmHg 52%
    10:00 +23°C° 0,2 mm 2 m/S 642 mmHg 50%
    11:00 +24°C° 0,2 mm 2 m/S 642 mmHg 47%
    12:00 +24°C° 0,2 mm 3 m/S 642 mmHg 45%
    13:00 +24°C° 0,2 mm 3 m/S 642 mmHg 45%
    14:00 +24°C° 0,2 mm 3 m/S 642 mmHg 45%
    15:00 +25°C° 0,2 mm 3 m/S 641 mmHg 45%
    16:00 +23°C° 0,2 mm 2 m/S 641 mmHg 50%
    17:00 +21°C° 0,2 mm 2 m/S 640 mmHg 54%
    18:00 +20°C° 0,2 mm 2 m/S 640 mmHg 59%
    19:00 +19°C° 0,2 mm 1 m/S 639 mmHg 64%
    20:00 +16°C° 0,2 mm 1 m/S 639 mmHg 70%
    21:00 +13°C° 0,2 mm 0 m/S 638 mmHg 76%
    22:00 +13°C° 0,2 mm 0 m/S 638 mmHg 76%
    23:00 +13°C° 0,2 mm 0 m/S 638 mmHg 77%
    Mehr zeigen